Temperature
14 14 14 15 18 19 19 19 18 18 18 17 16 17 19 20 20 19 15 15 15 15 15 15 15 15 15 15 15 15 15 15 15 15 15 15 15 15 15 15 15 15 15 16 16 16 15 15 15
13 14 14 16 19 19 19 18 17 17 16 15 16 16 17 18 16 15 14 14 15 15 15 15 15 15 15 15 15 15 15 15 15 15 15 15 15 15 15 15 15 15 15 15 15 15 15 15 15
13 14 15 17 18 19 18 17 17 16 15 15 16 16 16 16 14 14 14 14 14 14 14 14 15 15 15 15 15 15 15 15 15 15 15 15 15 15 15 15 15 15 15 15 15 15 15 15 15
13 13 15 17 17 17 17 16 15 15 15 14 15 16 15 14 13 13 13 14 14 14 14 14 14 15 15 15 15 15 15 15 15 15 15 15 15 15 15 15 15 15 15 15 15 15 15 15 15
13 14 16 16 16 16 16 15 14 15 15 15 14 16 15 13 13 13 13 13 13 13 14 14 14 14 14 15 15 15 15 15 15 15 15 15 15 15 15 15 15 15 15 15 15 15 15 15 15
13 15 16 16 15 15 15 13 14 15 15 14 14 15 14 13 12 13 13 12 13 13 13 13 14 14 14 14 14 14 15 15 15 15 15 15 15 15 15 15 15 15 15 15 14 14 14 14 14
14 15 15 15 14 14 14 13 13 14 14 14 13 14 14 12 12 12 12 12 12 13 13 13 13 13 14 14 14 14 14 15 15 15 15 15 14 14 14 14 14 14 14 14 14 14 14 14 14
11 14 13 14 14 14 13 12 12 12 13 12 12 13 13 12 12 12 12 12 12 12 12 13 13 13 13 14 14 14 14 14 14 14 14 14 14 14 14 14 14 14 14 14 14 14 14 14 14
11 13 13 13 13 13 13 12 12 11 12 11 11 12 12 11 11 11 11 11 12 12 12 12 13 13 13 13 13 14 14 14 14 14 14 14 14 14 14 14 14 14 14 14 14 14 14 14 14
12 13 13 13 13 13 12 12 11 12 12 12 12 11 11 11 10 11 11 11 11 11 12 12 12 13 13 13 13 13 13 13 13 14 14 14 14 14 14 14 14 14 14 14 14 14 13 13 13
11 12 12 11 11 11 11 11 11 11 12 12 12 11 10 10 10 10 10 10 11 11 11 12 12 12 13 13 13 13 13 13 13 13 13 14 14 14 13 13 13 13 13 13 13 13 13 13 13
11 11 11 11 10 10 10 11 11 11 11 11 11 10 10 10 10 10 10 10 10 11 11 11 11 12 12 12 13 12 12 13 13 13 13 13 13 13 13 13 13 13 13 13 13 13 13 13 12
11 11 10 10 9 9 10 10 10 10 10 10 10 10 10 10 10 10 10 10 10 10 11 11 11 11 11 12 12 12 12 12 13 13 13 13 13 13 13 13 13 13 13 13 13 13 13 12 12
10 10 10 10 10 9 10 10 10 11 10 10 10 10 9 9 9 9 10 10 10 10 10 10 11 11 11 11 12 12 12 12 12 12 12 12 12 13 13 13 13 13 13 13 13 13 12 12 12
9 10 11 11 10 10 10 11 11 11 10 10 10 10 9 9 9 9 9 10 10 10 10 10 10 11 11 11 11 11 11 12 12 12 12 12 12 12 12 12 12 12 12 12 12 12 12 12 12
10 11 11 12 11 10 10 11 12 10 10 10 10 9 9 9 9 9 9 9 9 9 9 10 10 10 10 10 11 11 11 11 11 12 12 12 12 12 12 12 12 12 12 12 12 12 12 11 11
12 11 11 11 11 11 10 11 12 10 10 10 10 9 9 9 9 9 9 9 9 9 9 9 10 10 10 10 10 11 11 11 11 11 11 12 11 11 11 12 12 12 11 11 11 11 11 11 11
11 11 11 11 11 10 10 11 12 11 10 10 10 9 9 9 8 8 9 9 9 9 9 9 9 10 10 10 10 10 10 10 10 11 11 11 11 11 11 11 11 11 11 11 11 11 11 10 10
10 10 11 11 11 10 10 11 12 11 10 10 10 9 9 9 8 8 8 8 8 8 9 9 9 9 9 10 10 9 9 10 10 10 10 10 10 11 11 11 11 11 11 11 10 10 10 10 10
10 10 11 11 10 10 10 11 12 11 11 10 10 9 9 8 8 8 8 8 8 8 8 8 8 9 9 9 9 9 9 9 9 10 10 10 10 10 10 10 10 10 10 10 10 10 10 10 9
10 10 10 10 10 10 10 12 12 12 11 10 9 9 9 8 8 8 8 8 8 8 8 8 8 8 8 9 9 9 9 9 9 9 9 10 10 10 10 10 10 10 10 10 10 10 10 9 9
11 10 9 9 10 11 10 11 13 12 12 11 10 9 9 8 8 8 8 8 8 8 8 8 8 8 8 8 8 8 9 9 9 9 9 9 9 9 9 9 9 9 9 9 9 9 9 9 9
10 9 9 9 10 10 10 10 12 12 11 11 11 10 9 8 8 8 8 8 8 8 8 8 8 8 8 8 8 8 8 8 9 9 9 9 9 9 9 9 9 9 9 9 9 9 9 9 8
9 9 9 9 10 10 10 10 12 12 11 11 11 9 9 8 8 8 8 8 8 8 8 8 8 8 8 8 8 8 8 8 8 8 8 8 8 8 9 9 9 9 9 9 8 8 8 8 8
9 11 11 11 12 12 10 10 11 11 11 10 10 9 8 8 7 8 7 8 8 8 8 8 8 8 8 8 8 8 8 8 8 8 8 8 8 8 8 8 8 8 8 8 8 8 8 8 7
10 10 11 11 12 12 10 10 12 11 10 9 9 8 8 8 8 8 8 8 8 8 8 8 8 8 8 8 8 8 8 8 8 8 8 8 8 8 8 8 8 8 8 8 8 7 7 7 7
10 10 10 10 10 10 12 12 12 11 10 9 9 8 8 7 7 7 7 7 8 8 8 8 8 8 8 8 8 8 8 8 8 8 8 8 8 8 8 8 7 7 7 7 7 7 7 7 7
9 9 9 10 10 11 12 12 12 11 10 10 9 8 8 7 7 7 7 7 7 8 8 8 8 8 8 8 8 8 8 8 8 8 8 8 8 7 7 7 7 7 7 7 7 7 6 6 6
9 9 9 10 10 11 11 12 11 10 10 9 9 8 7 7 7 7 7 7 7 7 8 8 8 8 8 8 8 7 7 7 7 7 7 7 7 7 7 7 7 7 7 6 6 6 6 6 6
9 9 10 10 10 10 11 12 10 9 9 8 8 7 7 7 6 7 7 7 7 7 7 7 8 8 8 7 7 7 7 7 7 7 7 7 7 7 7 6 6 6 6 6 6 6 6 5 5
Wind_Speed
7 5 3 2 4 4 8 6 3 3 2 2 3 5 6 6 5 2 3 2 1 1 3 6 6 6 8 10 11 11 11 11 12 12 12 12 12 11 11 11 11 11 10 10 11 10 10 10 10
6 3 1 2 5 8 7 6 6 3 2 4 4 5 5 5 2 3 2 3 1 2 3 5 6 7 7 9 11 11 11 11 11 12 12 12 12 12 11 11 11 10 10 10 10 10 10 11 10
3 2 1 3 5 8 6 2 3 3 3 3 3 3 4 3 3 3 4 3 2 2 3 4 5 7 8 9 11 12 12 11 11 11 11 12 12 12 12 11 11 11 10 11 11 10 10 11 10
1 1 1 3 6 5 4 1 2 4 2 2 4 4 2 2 3 4 4 3 2 2 3 4 6 6 8 9 11 12 12 12 12 11 11 11 11 12 12 12 11 11 11 11 11 11 10 10 10
1 1 3 4 5 4 3 3 3 5 4 3 5 6 5 2 3 4 4 3 2 2 3 5 6 6 7 8 10 12 12 12 12 12 11 11 11 12 12 11 11 11 11 11 11 10 10 10 10
1 1 3 5 5 3 4 4 5 6 7 6 6 7 5 2 4 4 4 4 2 3 3 5 6 6 7 8 10 12 12 13 12 12 12 12 11 11 12 12 11 11 10 10 10 10 10 10 9
1 1 2 3 4 4 3 3 5 7 8 7 5 6 4 2 4 4 3 3 2 2 3 4 6 6 7 7 9 11 12 12 12 12 12 12 11 11 11 11 11 10 10 11 11 10 10 10 10
1 1 2 3 4 4 1 3 4 7 8 5 4 5 5 5 5 4 3 2 1 1 2 3 5 6 6 7 8 10 12 12 12 12 13 12 11 11 11 11 10 10 11 11 11 11 10 10 9
1 1 2 3 3 3 2 4 5 5 6 7 6 8 8 7 5 4 3 2 1 1 1 3 4 5 6 7 7 9 11 12 13 12 13 11 10 9 9 10 11 11 11 11 10 10 10 10 9
0 2 2 2 3 5 6 7 7 6 9 9 8 8 7 6 5 4 4 3 2 1 0 2 4 5 6 6 7 6 8 10 10 10 10 9 8 8 8 10 11 11 11 10 10 9 8 6 6
0 2 2 4 5 6 8 8 7 8 10 10 10 10 8 7 6 6 6 5 4 2 1 2 3 4 5 5 6 5 5 6 8 9 9 8 8 7 7 7 7 8 8 7 7 7 5 5 4
1 3 5 5 5 7 8 8 8 10 12 11 11 11 10 8 7 7 7 6 4 3 2 2 3 4 5 6 6 5 4 5 5 7 8 7 6 6 6 5 5 5 5 5 5 4 5 5 5
3 4 5 7 8 9 10 11 11 13 13 12 11 10 10 9 8 7 6 5 4 4 4 3 2 3 5 6 6 5 4 5 6 6 6 7 6 6 5 5 5 5 4 5 4 4 5 6 5
3 6 8 9 8 7 8 10 9 11 9 9 9 9 9 8 7 6 6 5 5 5 5 4 3 3 5 6 6 5 4 5 6 6 6 6 6 6 6 5 4 4 4 4 5 5 5 5 5
4 6 7 5 5 3 6 8 7 9 8 8 8 9 8 7 7 6 6 5 5 5 5 5 4 3 5 6 7 5 5 4 5 5 6 5 6 6 6 5 4 4 5 5 5 6 5 5 5
3 3 4 3 3 2 4 9 6 6 7 8 8 7 7 5 5 4 4 4 4 4 4 5 4 4 6 6 6 6 5 4 4 5 6 6 5 6 6 5 5 5 5 5 4 4 5 5 5
1 4 7 6 3 3 4 10 9 7 8 8 7 6 5 3 3 2 2 3 3 4 4 4 5 5 6 6 6 6 5 4 4 5 5 5 5 5 5 5 5 6 5 4 4 4 4 5 5
5 6 7 8 5 6 8 11 12 9 7 7 6 5 4 3 3 2 2 2 2 3 4 5 5 6 7 6 5 4 4 4 4 4 5 5 4 5 5 5 6 6 4 4 4 5 5 5 5
6 7 10 10 7 7 9 12 12 8 5 5 5 4 4 3 2 1 1 2 3 3 3 5 5 6 6 5 5 4 3 3 3 3 5 5 5 5 5 4 5 4 4 5 5 5 6 4 4
6 8 9 8 6 6 9 12 8 4 3 4 3 3 4 2 1 1 2 3 3 3 3 4 4 5 6 5 4 4 3 3 3 3 4 4 4 4 4 4 4 4 4 5 5 5 4 3 2
6 6 8 9 10 5 7 5 2 3 2 2 3 3 3 2 3 2 3 3 3 4 4 4 5 5 5 6 5 5 4 3 2 3 3 3 4 4 4 4 4 4 4 4 4 4 4 3 2
6 4 7 9 7 4 5 4 3 5 4 4 3 3 3 2 3 3 4 4 4 4 4 5 5 6 6 5 5 6 4 4 3 3 3 4 4 4 5 4 4 4 3 4 4 3 2 4 3
5 5 6 7 5 4 3 4 4 4 5 5 5 4 3 2 2 3 4 5 5 5 4 5 5 6 6 6 6 6 4 3 3 4 5 4 3 4 4 4 4 3 3 3 4 3 3 2 3
5 4 3 3 3 3 2 3 3 3 5 6 5 4 3 1 2 3 4 4 4 4 4 5 6 6 6 6 6 6 6 5 5 5 5 4 3 3 3 4 3 3 3 3 3 3 3 2 2
2 3 2 2 2 3 1 3 4 3 4 5 6 4 3 2 1 2 4 4 4 4 5 5 7 6 6 7 6 6 6 6 7 6 6 5 4 3 3 3 3 3 3 3 3 3 3 3 3
1 2 2 3 4 4 2 3 3 3 3 4 5 4 3 2 0 2 3 4 5 5 5 6 6 6 6 6 6 5 5 4 4 5 5 5 4 3 4 4 3 3 3 3 3 3 3 3 3
1 1 2 2 3 4 4 3 3 1 4 4 5 4 3 3 1 1 3 4 5 5 5 6 6 6 6 6 6 5 5 5 5 5 5 4 4 4 5 5 4 4 4 4 4 3 3 3 3
2 2 2 2 2 4 5 4 2 3 5 5 6 5 4 3 2 1 1 3 3 4 4 5 6 6 6 6 5 4 5 5 5 4 5 5 6 5 6 5 5 5 4 4 4 3 4 4 3
3 3 3 2 3 3 4 2 1 2 4 4 5 5 5 4 3 2 1 1 2 3 4 4 4 5 5 5 5 5 5 5 5 5 5 5 5 6 6 6 6 5 5 5 5 5 5 5 4
4 5 5 3 3 4 4 4 2 1 3 4 5 5 5 4 3 2 1 0 1 2 3 4 4 5 5 5 5 6 5 5 5 5 5 5 5 6 6 6 6 6 6 6 6 6 6 6 6
Wind_Direction
338 328 291 234 208 217 231 219 218 212 220 292 290 263 258 251 254 299 25 15 16 172 169 170 168 164 162 159 153 148 143 147 148 147 147 144 142 138 135 131 127 122 119 117 114 112 112 113 107
338 322 242 216 228 228 226 221 220 234 322 317 274 254 253 249 305 332 347 348 312 189 175 175 167 167 161 161 156 150 148 144 146 149 150 148 145 141 136 132 129 125 120 117 114 112 111 112 108
336 344 217 197 225 238 228 189 242 285 305 289 280 265 268 284 325 331 343 314 273 203 183 166 161 167 161 161 159 155 150 147 143 146 148 148 146 143 138 133 130 125 122 119 116 114 113 112 110
305 157 174 214 222 234 246 265 311 291 273 277 290 272 261 328 331 329 329 301 254 207 185 160 160 162 164 160 163 160 155 151 146 146 146 148 146 142 139 133 130 128 126 124 121 118 115 114 111
8 196 194 216 235 233 250 290 290 282 284 288 285 278 273 292 325 332 330 308 245 204 176 160 156 157 164 163 164 161 159 153 149 149 146 144 143 141 138 135 133 130 128 127 123 119 117 114 110
127 196 220 235 236 242 257 272 274 277 281 289 290 277 274 305 326 333 324 307 249 205 181 162 158 157 157 164 166 163 161 154 149 149 148 142 138 142 141 139 136 133 130 127 124 120 117 113 109
135 178 225 242 252 248 265 285 271 282 278 283 291 276 272 303 333 320 313 312 276 203 176 165 165 165 158 158 164 163 160 152 147 147 142 137 133 132 136 135 133 132 131 126 122 119 117 115 110
40 162 197 233 254 261 296 290 288 285 285 296 275 266 277 316 319 311 302 308 333 237 184 161 164 163 163 156 155 161 154 150 143 140 132 127 125 124 128 130 125 124 124 124 122 119 116 112 110
269 207 232 247 257 275 299 292 299 288 275 272 263 273 296 308 298 292 295 304 317 336 224 171 164 157 153 143 133 152 148 143 139 137 133 135 136 133 131 122 121 122 120 118 117 117 115 114 110
325 235 254 258 269 287 291 286 291 280 274 273 270 276 288 289 278 259 257 256 261 262 234 169 168 156 144 136 129 138 147 148 151 149 147 143 136 126 123 115 113 116 119 119 116 117 127 135 126
320 253 271 270 276 282 284 282 276 274 274 278 284 289 293 286 272 260 247 237 234 226 195 171 153 157 142 136 126 124 134 137 149 150 147 137 129 125 125 127 127 126 129 128 129 135 130 131 127
262 264 270 281 285 277 280 281 277 264 271 288 288 285 283 276 269 262 250 234 220 204 181 145 133 147 144 138 126 119 132 132 134 144 144 137 127 125 124 127 131 136 135 133 136 129 131 127 126
252 278 281 279 282 278 277 273 274 273 279 285 283 278 273 272 268 263 247 224 209 198 168 140 121 135 149 137 129 124 130 126 128 126 136 137 132 132 125 123 125 125 126 131 130 129 128 126 118
294 287 288 289 283 275 278 282 272 275 287 290 281 274 271 269 266 262 245 222 205 187 166 152 146 141 144 139 134 131 120 119 122 118 120 134 136 135 130 125 118 117 121 122 126 123 124 121 119
281 291 294 283 282 285 291 284 264 277 290 290 282 275 271 268 262 249 241 229 210 188 168 154 150 148 143 132 130 122 118 120 124 123 124 128 135 135 130 126 121 117 119 121 120 120 118 114 115
275 294 311 323 309 279 284 288 296 301 293 290 286 281 272 267 266 247 232 214 203 180 166 152 143 136 139 126 121 117 117 120 127 128 127 127 135 139 135 129 123 121 122 125 123 124 120 118 117
317 318 313 315 314 288 271 284 299 306 293 291 289 284 278 271 274 251 228 201 192 172 157 144 132 131 129 123 117 113 117 119 119 123 122 122 130 139 136 129 128 130 128 126 127 126 126 120 112
318 312 306 309 320 299 282 282 297 303 296 292 289 286 280 266 264 248 212 192 164 144 145 141 136 136 132 123 116 114 118 117 105 106 114 123 131 141 133 126 131 134 133 131 132 125 119 116 118
289 290 297 300 307 303 289 293 302 311 302 297 297 290 282 269 254 221 174 158 143 128 139 141 140 138 139 136 136 137 143 131 119 113 118 123 127 139 136 133 135 140 139 138 138 132 126 118 124
269 288 300 306 318 303 298 299 304 311 304 302 305 299 292 276 250 191 158 150 155 156 147 130 138 142 142 141 137 134 136 129 118 118 111 115 127 139 138 139 145 147 142 141 142 140 138 133 146
275 274 295 304 315 286 300 298 334 347 319 317 318 309 295 260 235 204 167 164 162 161 163 157 150 147 142 135 127 118 117 121 120 123 122 114 129 136 132 140 147 150 148 148 151 156 155 157 153
288 279 281 295 311 318 329 314 335 342 342 344 336 327 309 278 228 204 180 173 175 170 162 159 155 147 144 143 144 149 157 160 160 149 141 127 125 133 132 136 139 140 145 151 158 161 168 171 171
284 303 279 279 283 292 304 287 309 341 338 338 339 335 326 285 236 207 189 178 172 161 159 156 156 154 150 153 157 164 163 156 146 143 137 130 124 127 130 132 133 140 145 148 154 158 167 184 188
280 284 255 239 252 285 310 284 309 342 328 332 337 336 325 311 243 204 177 170 158 155 155 158 166 163 161 166 170 174 167 165 159 157 153 148 140 137 134 134 140 149 150 153 157 161 170 175 182
289 304 306 288 281 298 331 262 274 322 326 320 326 330 330 331 247 194 175 177 168 167 169 172 172 166 170 175 175 177 176 177 175 172 168 164 160 160 160 155 159 161 159 157 157 162 169 173 178
253 305 312 308 304 307 279 266 280 348 334 326 329 335 337 348 320 206 182 184 181 180 177 179 174 174 177 178 179 177 178 183 182 181 175 171 167 168 171 174 174 173 169 166 166 168 171 176 180
208 210 301 274 287 280 273 277 279 8 359 0 359 2 355 347 337 249 196 189 187 185 184 183 178 179 182 184 184 180 183 189 186 181 178 176 173 173 175 176 177 178 178 178 175 181 183 184 189
279 182 192 236 288 286 283 271 276 324 349 355 357 355 348 347 336 305 233 194 190 190 189 185 185 186 184 184 185 186 189 191 190 184 187 188 183 179 178 179 184 185 185 184 186 189 195 197 198
179 187 215 226 262 270 288 285 59 315 336 336 343 344 343 338 332 327 306 215 181 181 180 185 189 187 183 187 187 190 192 192 193 195 197 197 193 188 187 189 190 190 190 192 195 199 197 203 207
232 217 203 233 241 239 268 275 79 330 337 336 346 352 349 350 342 340 347 308 188 185 183 188 194 198 194 194 195 197 197 197 203 207 204 201 201 196 195 195 196 197 198 200 203 204 205 209 214
Height
1517 1517 1518 1520 1519 1515 1512 1513 1515 1517 1517 1519 1519 1518 1515 1513 1513 1515 1515 1511 1512 1513 1515 1516 1517 1519 1520 1521 1522 1524 1525 1526 1527 1528 1529 1530 1531 1531 1532 1532 1533 1534 1534 1535 1535 1536 1536 1536 1537
1517 1517 1520 1520 1514 1512 1512 1514 1516 1517 1519 1520 1519 1518 1516 1514 1515 1514 1512 1511 1511 1513 1514 1515 1517 1518 1519 1521 1522 1523 1524 1525 1527 1528 1528 1529 1530 1531 1532 1532 1533 1534 1534 1535 1535 1536 1536 1537 1537
1518 1518 1521 1517 1513 1509 1510 1516 1517 1520 1521 1520 1519 1517 1516 1515 1515 1513 1511 1510 1511 1512 1513 1514 1516 1517 1518 1520 1521 1523 1524 1525 1526 1527 1528 1529 1530 1531 1531 1532 1533 1534 1534 1535 1535 1536 1536 1537 1538
1519 1521 1521 1517 1514 1515 1516 1518 1520 1520 1520 1520 1519 1517 1516 1515 1514 1512 1510 1510 1510 1511 1512 1513 1515 1516 1517 1519 1520 1522 1523 1524 1525 1526 1527 1528 1529 1530 1531 1532 1533 1533 1534 1535 1536 1536 1537 1537 1538
1519 1520 1518 1516 1516 1517 1519 1521 1522 1519 1519 1519 1519 1515 1514 1514 1512 1511 1510 1509 1509 1510 1511 1512 1513 1515 1516 1518 1519 1521 1522 1523 1525 1526 1527 1528 1529 1530 1531 1532 1533 1533 1534 1535 1536 1536 1537 1538 1538
1521 1519 1516 1514 1516 1519 1521 1522 1522 1519 1518 1519 1518 1515 1513 1513 1511 1510 1509 1508 1509 1509 1510 1511 1512 1514 1515 1517 1518 1519 1521 1522 1524 1525 1526 1527 1528 1530 1531 1532 1532 1533 1534 1535 1536 1536 1537 1538 1538
1522 1519 1517 1517 1518 1518 1521 1522 1521 1519 1517 1518 1518 1515 1512 1512 1510 1509 1508 1507 1508 1508 1509 1509 1511 1512 1514 1515 1517 1518 1520 1521 1522 1524 1525 1527 1528 1529 1530 1531 1532 1533 1534 1535 1535 1536 1537 1537 1538
1522 1522 1520 1519 1519 1518 1521 1522 1520 1520 1517 1517 1517 1514 1511 1511 1509 1507 1507 1506 1506 1507 1507 1508 1509 1510 1512 1513 1515 1517 1518 1520 1521 1523 1524 1526 1527 1528 1530 1531 1532 1532 1533 1534 1535 1536 1537 1537 1538
1524 1523 1519 1519 1519 1519 1521 1521 1520 1519 1517 1516 1515 1513 1511 1509 1507 1506 1505 1504 1504 1505 1505 1506 1507 1508 1510 1512 1513 1515 1517 1518 1520 1522 1523 1525 1526 1528 1529 1530 1531 1532 1533 1534 1535 1536 1536 1537 1538
1524 1521 1520 1521 1521 1520 1521 1520 1519 1517 1514 1512 1511 1511 1509 1507 1505 1504 1502 1502 1502 1502 1503 1504 1505 1506 1508 1509 1511 1512 1514 1516 1519 1520 1522 1524 1525 1527 1528 1530 1531 1532 1533 1534 1535 1535 1536 1537 1537
1525 1522 1522 1522 1522 1522 1520 1519 1518 1515 1511 1510 1509 1508 1506 1505 1503 1502 1500 1500 1500 1501 1501 1502 1503 1504 1506 1507 1509 1510 1512 1515 1517 1519 1521 1522 1524 1526 1527 1529 1530 1531 1532 1533 1534 1535 1535 1536 1537
1525 1524 1524 1522 1522 1521 1519 1517 1515 1513 1510 1508 1507 1506 1504 1502 1501 1500 1499 1498 1498 1498 1499 1500 1501 1502 1504 1505 1507 1508 1511 1512 1515 1518 1520 1521 1523 1525 1526 1528 1529 1530 1531 1532 1533 1534 1535 1535 1536
1524 1523 1523 1522 1520 1519 1517 1515 1513 1509 1507 1505 1504 1502 1501 1499 1498 1497 1497 1496 1496 1496 1497 1498 1499 1500 1502 1503 1505 1508 1510 1511 1514 1516 1519 1521 1522 1524 1525 1527 1528 1529 1530 1531 1532 1533 1534 1534 1535
1524 1523 1521 1519 1518 1517 1515 1511 1510 1504 1504 1502 1501 1499 1498 1496 1495 1495 1494 1494 1494 1494 1495 1496 1497 1499 1500 1502 1504 1507 1509 1511 1513 1515 1518 1520 1522 1523 1524 1526 1527 1528 1529 1530 1531 1532 1532 1533 1534
1524 1521 1517 1516 1515 1514 1514 1506 1504 1503 1502 1500 1498 1496 1495 1494 1493 1492 1491 1491 1492 1493 1494 1495 1496 1498 1499 1500 1502 1506 1508 1510 1512 1514 1517 1519 1521 1522 1523 1525 1526 1527 1528 1529 1530 1531 1532 1532 1533
1522 1518 1514 1513 1514 1513 1514 1503 1500 1501 1499 1497 1495 1494 1492 1491 1490 1490 1489 1489 1490 1491 1492 1493 1494 1495 1497 1498 1501 1504 1507 1509 1511 1514 1516 1518 1520 1521 1522 1524 1525 1526 1527 1528 1529 1530 1530 1531 1532
1517 1516 1514 1511 1512 1512 1510 1502 1498 1499 1497 1494 1493 1491 1490 1489 1488 1488 1487 1487 1488 1489 1490 1491 1492 1494 1496 1498 1500 1502 1506 1508 1510 1512 1515 1517 1518 1520 1521 1522 1523 1525 1526 1527 1528 1529 1530 1530 1531
1517 1515 1513 1511 1509 1510 1506 1500 1496 1496 1495 1492 1491 1489 1488 1487 1487 1487 1486 1486 1487 1488 1489 1490 1492 1493 1495 1498 1500 1502 1505 1507 1509 1511 1513 1515 1517 1519 1520 1521 1522 1523 1525 1526 1527 1528 1528 1529 1530
1520 1518 1514 1510 1510 1509 1502 1497 1493 1493 1492 1490 1489 1488 1487 1486 1486 1486 1485 1485 1486 1487 1489 1490 1492 1493 1495 1497 1499 1501 1503 1505 1507 1510 1512 1514 1516 1518 1519 1520 1521 1522 1524 1525 1526 1526 1527 1528 1529
1520 1516 1511 1508 1508 1507 1500 1494 1490 1490 1490 1489 1488 1486 1486 1485 1485 1484 1484 1485 1485 1487 1488 1489 1491 1493 1494 1497 1498 1500 1503 1505 1506 1508 1511 1512 1514 1516 1518 1519 1520 1521 1522 1523 1524 1525 1526 1527 1528
1516 1515 1512 1510 1507 1504 1501 1489 1487 1488 1488 1488 1487 1486 1485 1484 1483 1483 1483 1483 1485 1486 1488 1489 1491 1492 1494 1496 1498 1500 1502 1504 1505 1507 1510 1511 1513 1515 1516 1518 1519 1520 1521 1522 1523 1524 1525 1526 1526
1512 1513 1513 1512 1507 1501 1503 1494 1484 1486 1485 1486 1485 1484 1483 1483 1483 1483 1482 1483 1484 1486 1488 1490 1491 1492 1494 1496 1497 1499 1501 1503 1505 1507 1509 1510 1512 1513 1515 1516 1517 1518 1519 1520 1521 1522 1523 1524 1525
1513 1514 1513 1510 1507 1504 1500 1498 1486 1485 1484 1483 1484 1484 1483 1482 1482 1482 1482 1482 1484 1485 1487 1489 1491 1492 1494 1496 1497 1499 1501 1503 1504 1506 1508 1509 1511 1512 1513 1514 1516 1517 1518 1519 1520 1520 1521 1522 1523
1515 1513 1510 1509 1505 1501 1500 1499 1487 1484 1485 1484 1484 1484 1483 1482 1481 1481 1481 1482 1483 1485 1485 1487 1490 1491 1493 1496 1497 1499 1501 1502 1503 1505 1507 1508 1509 1510 1511 1513 1514 1516 1517 1517 1518 1519 1519 1520 1521
1514 1508 1503 1499 1497 1493 1499 1498 1489 1485 1486 1486 1485 1484 1482 1481 1481 1480 1480 1481 1482 1483 1484 1486 1489 1490 1493 1494 1496 1498 1500 1501 1503 1505 1506 1507 1508 1509 1510 1511 1512 1514 1515 1515 1516 1516 1517 1518 1518
1512 1509 1507 1504 1496 1490 1495 1492 1485 1486 1487 1486 1485 1484 1482 1481 1480 1480 1480 1481 1482 1483 1484 1486 1487 1489 1491 1493 1494 1496 1498 1500 1502 1503 1504 1505 1506 1508 1509 1510 1511 1512 1512 1513 1514 1514 1515 1515 1516
1510 1510 1510 1508 1507 1502 1488 1486 1483 1485 1485 1485 1484 1483 1482 1481 1480 1480 1480 1480 1481 1482 1484 1485 1487 1489 1490 1492 1493 1495 1497 1498 1500 1501 1502 1503 1505 1506 1507 1508 1509 1509 1510 1511 1511 1512 1513 1513 1513
1513 1511 1511 1508 1503 1495 1485 1484 1483 1483 1484 1484 1483 1483 1482 1481 1480 1480 1480 1480 1481 1482 1483 1484 1486 1488 1489 1490 1492 1494 1495 1497 1498 1499 1500 1501 1502 1503 1504 1505 1506 1507 1507 1508 1508 1509 1510 1510 1511
1512 1512 1508 1506 1503 1497 1489 1483 1483 1484 1485 1485 1484 1483 1481 1480 1479 1479 1479 1479 1479 1481 1481 1482 1484 1485 1487 1488 1490 1492 1493 1494 1496 1497 1498 1498 1499 1500 1501 1503 1503 1504 1504 1505 1505 1506 1507 1507 1507
1507 1505 1505 1503 1502 1500 1494 1487 1485 1486 1486 1486 1484 1483 1481 1480 1479 1478 1478 1478 1478 1479 1480 1481 1482 1484 1485 1486 1488 1489 1491 1492 1493 1494 1495 1495 1496 1497 1498 1499 1499 1500 1501 1502 1502 1503 1503 1504 1504